Regulus — ZGAS3 — position and weather

sailwx.info

Track history (hours):
 
Tides and Currents Weather Stations Pressure Air Temp Water Temp Dewpoint Dewpoint Depression Visibility Wind Speed Wind Dir Waves Ship Positions

Regulus

Last reported at 2015-Aug-03 20:33 UTC. Time now 2015-Aug-31 06:53 UTC.
Position N 42°25' E 018°25'.
Warning: this ship's position is 27 days out of date.

Length 40 m; draft 2.7 m.

Type: Pleasure craft. MMSI: 319474000.

Date/timePositionNaut miles runAvg speedWind from/ knotsBaromVisibWave heightAir tempDewpointWater temp
2015-Aug-03 20:33N 42°25' E 018°25'7 6.8
2015-Aug-03 19:33N 42°26' E 018°34'5 5.2
2015-Aug-03 18:31N 42°26' E 018°41'0 0.0
2015-Aug-03 17:31N 42°26' E 018°41'0 0.0
2015-Aug-03 16:31N 42°26' E 018°41'1 0.7
2015-Aug-03 15:31N 42°25' E 018°42'0 0.0
2015-Aug-03 06:31N 42°25' E 018°42'0 0.0
2015-Aug-03 05:31N 42°25' E 018°42'0 0.0
2015-Aug-03 04:31N 42°25' E 018°42'0 0.0
2015-Aug-03 03:31N 42°25' E 018°42'0 0.0
2015-Aug-03 02:31N 42°25' E 018°42'0 0.0
2015-Aug-03 01:31N 42°25' E 018°42'0 0.0
2015-Aug-03 00:31N 42°25' E 018°42'0 0.0
2015-Aug-02 23:31N 42°25' E 018°42'0 0.0
2015-Aug-02 22:31N 42°25' E 018°42'0 0.0
2015-Aug-02 21:31N 42°25' E 018°42'0 0.0
2015-Aug-02 20:31N 42°25' E 018°42'0 0.0
2015-Aug-02 19:31N 42°25' E 018°42'0 0.0
2015-Aug-02 18:31N 42°25' E 018°42'0 0.0
2015-Aug-02 17:31N 42°25' E 018°42'0 0.0
2015-Aug-02 16:31N 42°25' E 018°42'0 0.0
2015-Aug-02 15:31N 42°25' E 018°42'0 0.0
2015-Aug-02 14:33N 42°25' E 018°42'0 0.0
2015-Aug-02 13:33N 42°25' E 018°42'0 0.0
2015-Aug-02 12:33N 42°25' E 018°42'0 0.0
2015-Aug-02 11:33N 42°25' E 018°42'0 0.0
2015-Aug-02 07:31N 42°25' E 018°42'0 0.0
2015-Aug-02 06:31N 42°25' E 018°42'0 0.0
2015-Aug-02 05:31N 42°25' E 018°42'0 0.0
2015-Aug-02 04:31N 42°25' E 018°42'0 0.0
2015-Aug-02 03:31N 42°25' E 018°42'0 0.0
2015-Aug-02 02:31N 42°25' E 018°42'0 0.0
2015-Aug-02 01:31N 42°25' E 018°42'0 0.0
2015-Aug-02 00:31N 42°25' E 018°42'0 0.0
2015-Aug-01 23:31N 42°25' E 018°42'0 0.0
2015-Aug-01 22:31N 42°25' E 018°42'0 0.0
2015-Aug-01 21:31N 42°25' E 018°42'0 0.0
2015-Aug-01 20:31N 42°25' E 018°42'0 0.0
2015-Aug-01 19:31N 42°25' E 018°42'1 0.6
2015-Aug-01 18:33N 42°26' E 018°41'4 3.6
2015-Aug-01 17:31N 42°29' E 018°39'0 0.0
2015-Aug-01 16:22N 42°29' E 018°39'0 0.0
2015-Aug-01 15:28N 42°29' E 018°39'0 0.0
2015-Aug-01 14:22N 42°29' E 018°39'0 0.0
2015-Aug-01 13:25N 42°29' E 018°39'0 0.0
2015-Aug-01 12:25N 42°29' E 018°39'0 0.0
2015-Aug-01 11:31N 42°29' E 018°39'2 2.0
2015-Aug-01 10:33N 42°28' E 018°41'2 2.3
2015-Aug-01 09:33N 42°26' E 018°42'0 0.0
2015-Aug-01 08:33N 42°26' E 018°42'0 0.0
2015-Aug-01 07:33N 42°26' E 018°42'0 0.0
2015-Aug-01 06:33N 42°26' E 018°42'0 0.0
2015-Aug-01 05:33N 42°26' E 018°42'0 0.0
2015-Aug-01 04:33N 42°26' E 018°42'0 0.0
2015-Aug-01 03:33N 42°26' E 018°42'0 0.0
2015-Aug-01 02:33N 42°26' E 018°42'0 0.0
2015-Aug-01 01:33N 42°26' E 018°42'0 0.0
2015-Aug-01 00:33N 42°26' E 018°42'0 0.0
2015-Jul-31 23:33N 42°26' E 018°42'0 0.0
2015-Jul-31 22:33N 42°26' E 018°42'0 0.0
2015-Jul-31 21:33N 42°26' E 018°42'0 0.0
2015-Jul-31 20:33N 42°26' E 018°42'0 0.0
2015-Jul-31 19:33N 42°26' E 018°42'0 0.0
2015-Jul-31 18:33N 42°26' E 018°42'0 0.0
2015-Jul-31 17:34N 42°26' E 018°42'0 0.0
2015-Jul-31 16:34N 42°26' E 018°42'1 0.5
2015-Jul-31 15:34N 42°26' E 018°41'6 5.7
2015-Jul-31 14:33N 42°23' E 018°34'9 8.9
2015-Jul-31 13:33N 42°17' E 018°43'6 0.3
2015-Jul-30 13:11N 42°16' E 018°52'0 0.0
2015-Jul-30 09:09N 42°16' E 018°52'0 0.1
2015-Jul-30 07:12N 42°17' E 018°51'0 0.0
2015-Jul-30 06:11N 42°17' E 018°51'0 0.0
2015-Jul-30 05:26N 42°17' E 018°51'0 0.0
2015-Jul-30 04:33N 42°17' E 018°51'0 0.0
2015-Jul-30 03:28N 42°17' E 018°51'0 0.0
2015-Jul-30 02:31N 42°17' E 018°51'0 0.0
2015-Jul-30 00:30N 42°17' E 018°51'0 0.0
2015-Jul-29 23:25N 42°17' E 018°51'0 0.0
2015-Jul-29 22:20N 42°17' E 018°51'0 0.0
2015-Jul-29 21:33N 42°17' E 018°51'0 0.0
2015-Jul-29 18:17N 42°17' E 018°51'0 0.0
2015-Jul-29 17:32N 42°17' E 018°51'0 0.0
2015-Jul-29 16:07N 42°17' E 018°51'0 0.0
2015-Jul-29 15:27N 42°17' E 018°51'0 0.0
2015-Jul-29 14:33N 42°17' E 018°51'0 0.0
2015-Jul-29 13:27N 42°17' E 018°51'6 6.9
2015-Jul-29 12:33N 42°18' E 018°43'1110.5
2015-Jul-29 11:31N 42°26' E 018°33'7 1.7
2015-Jul-29 07:15N 42°24' E 018°42'0 0.0
2015-Jul-29 06:33N 42°24' E 018°42'0 0.0
2015-Jul-29 05:33N 42°24' E 018°42'0 0.0
2015-Jul-29 04:33N 42°24' E 018°42'0 0.0
2015-Jul-29 03:33N 42°24' E 018°42'0 0.0
2015-Jul-29 02:33N 42°24' E 018°42'0 0.0
2015-Jul-29 01:33N 42°24' E 018°42'0 0.0
2015-Jul-29 00:33N 42°24' E 018°42'0 0.0
2015-Jul-28 23:24N 42°24' E 018°42'0 0.0
2015-Jul-28 22:33N 42°24' E 018°42'0 0.0
2015-Jul-28 21:33N 42°24' E 018°42'0 0.0
2015-Jul-28 20:24N 42°24' E 018°42'0 0.0
2015-Jul-28 19:33N 42°24' E 018°42'0 0.0
2015-Jul-28 18:33N 42°24' E 018°42'0 0.0
2015-Jul-28 17:33N 42°24' E 018°42'0 0.0
2015-Jul-28 16:33N 42°24' E 018°42'2 2.0
2015-Jul-28 15:33N 42°26' E 018°41'4 4.4
2015-Jul-28 14:33N 42°30' E 018°41'0 0.0
2015-Jul-28 13:33N 42°30' E 018°41'2 1.9
2015-Jul-28 12:33N 42°29' E 018°43'3 3.0
2015-Jul-28 11:33N 42°26' E 018°41'0 0.0
2015-Jul-28 10:22N 42°26' E 018°41'0 0.0
2015-Jul-28 09:22N 42°26' E 018°41'0 0.0
2015-Jul-28 08:31N 42°26' E 018°41'0 0.0
2015-Jul-28 07:31N 42°26' E 018°41'0 0.0
2015-Jul-28 06:31N 42°26' E 018°41'0 0.0
2015-Jul-28 05:31N 42°26' E 018°41'0 0.0
2015-Jul-28 04:31N 42°26' E 018°41'0 0.0
2015-Jul-28 03:31N 42°26' E 018°41'0 0.0
2015-Jul-28 02:31N 42°26' E 018°41'0 0.0
2015-Jul-28 01:31N 42°26' E 018°41'0 0.0
2015-Jul-28 00:31N 42°26' E 018°41'0 0.0
2015-Jul-27 23:31N 42°26' E 018°41'0 0.0
2015-Jul-27 22:31N 42°26' E 018°41'0 0.0
2015-Jul-27 21:31N 42°26' E 018°41'0 0.0
2015-Jul-27 20:31N 42°26' E 018°41'0 0.0
2015-Jul-27 19:31N 42°26' E 018°41'0 0.0
2015-Jul-27 18:31N 42°26' E 018°41'0 0.0
2015-Jul-27 17:31N 42°26' E 018°41'0 0.0
2015-Jul-27 16:31N 42°26' E 018°41'0 0.0
2015-Jul-27 15:31N 42°26' E 018°41'0 0.0
2015-Jul-27 14:31N 42°26' E 018°41'0 0.0
2015-Jul-27 13:31N 42°26' E 018°41'0 0.0
2015-Jul-27 12:31N 42°26' E 018°41'0 0.0
2015-Jul-27 11:31N 42°26' E 018°41'0 0.0
2015-Jul-27 10:31N 42°26' E 018°41'0 0.0
2015-Jul-27 09:31N 42°26' E 018°41'0 0.0
2015-Jul-27 08:31N 42°26' E 018°41'0 0.0
2015-Jul-27 07:31N 42°26' E 018°41'0 0.0
2015-Jul-27 06:31N 42°26' E 018°41'0 0.0
2015-Jul-27 05:31N 42°26' E 018°41'0 0.0
2015-Jul-27 04:31N 42°26' E 018°41'0 0.0
2015-Jul-27 03:31N 42°26' E 018°41'0 0.0
2015-Jul-27 02:31N 42°26' E 018°41'0 0.0
2015-Jul-27 01:31N 42°26' E 018°41'0 0.0
2015-Jul-27 00:31N 42°26' E 018°41'0 0.0
2015-Jul-26 23:31N 42°26' E 018°41'0 0.0
2015-Jul-26 22:31N 42°26' E 018°41'0 0.0
2015-Jul-26 21:22N 42°26' E 018°41'0 0.0
2015-Jul-26 20:31N 42°26' E 018°41'0 0.0
2015-Jul-26 19:31N 42°26' E 018°41'0 0.0
2015-Jul-26 18:31N 42°26' E 018°41'0 0.0
2015-Jul-26 17:31N 42°26' E 018°41'0 0.0
2015-Jul-26 16:31N 42°26' E 018°41'0 0.0
2015-Jul-26 15:31N 42°26' E 018°41'0 0.0
2015-Jul-26 14:31N 42°26' E 018°41'0 0.0
2015-Jul-26 13:31N 42°26' E 018°41'0 0.0
2015-Jul-26 12:31N 42°26' E 018°41'0 0.0
2015-Jul-26 11:31N 42°26' E 018°41'0 0.0
2015-Jul-26 10:32N 42°26' E 018°41'0 0.0
2015-Jul-26 09:32N 42°26' E 018°41'0 0.0
2015-Jul-26 08:32N 42°26' E 018°41'0 0.0
2015-Jul-26 07:33N 42°26' E 018°41'0 0.0
2015-Jul-26 06:33N 42°26' E 018°41'0 0.0
2015-Jul-26 05:33N 42°26' E 018°41'0 0.0
2015-Jul-26 04:33N 42°26' E 018°41'0 0.0
2015-Jul-26 03:33N 42°26' E 018°41'0 0.0
2015-Jul-26 02:33N 42°26' E 018°41'0 0.0
2015-Jul-26 01:33N 42°26' E 018°41'0 0.0
2015-Jul-26 00:33N 42°26' E 018°41'0 0.0
2015-Jul-25 23:33N 42°26' E 018°41'0 0.0
2015-Jul-25 22:33N 42°26' E 018°41'0 0.0
2015-Jul-25 21:33N 42°26' E 018°41'0 0.0
2015-Jul-25 20:33N 42°26' E 018°41'0 0.0
2015-Jul-25 19:33N 42°26' E 018°41'0 0.0
2015-Jul-25 18:33N 42°26' E 018°41'0 0.0
2015-Jul-25 17:33N 42°26' E 018°41'0 0.0
2015-Jul-25 16:33N 42°26' E 018°41'0 0.0
2015-Jul-25 15:33N 42°26' E 018°41'0 0.0
2015-Jul-25 14:33N 42°26' E 018°41'0 0.0
2015-Jul-25 13:33N 42°26' E 018°41'0 0.0
2015-Jul-25 12:33N 42°26' E 018°41'  
Track history (hours):
 
Tides and Currents Weather Stations Pressure Air Temp Water Temp Dewpoint Dewpoint Depression Visibility Wind Speed Wind Dir Waves Ship Positions

Regulus

Last reported at 2015-Aug-03 20:33 UTC. Time now 2015-Aug-31 06:53 UTC.
Position N 42°25' E 018°25'.
Warning: this ship's position is 27 days out of date.

Length 40 m; draft 2.7 m.

Type: Pleasure craft. MMSI: 319474000.

Date/timePositionNaut miles runAvg speedWind from/ knotsBaromVisibWave heightAir tempDewpointWater temp
2015-Aug-03 20:33N 42°25' E 018°25'7 6.8
2015-Aug-03 19:33N 42°26' E 018°34'5 5.2
2015-Aug-03 18:31N 42°26' E 018°41'0 0.0
2015-Aug-03 17:31N 42°26' E 018°41'0 0.0
2015-Aug-03 16:31N 42°26' E 018°41'1 0.7
2015-Aug-03 15:31N 42°25' E 018°42'0 0.0
2015-Aug-03 06:31N 42°25' E 018°42'0 0.0
2015-Aug-03 05:31N 42°25' E 018°42'0 0.0
2015-Aug-03 04:31N 42°25' E 018°42'0 0.0
2015-Aug-03 03:31N 42°25' E 018°42'0 0.0
2015-Aug-03 02:31N 42°25' E 018°42'0 0.0
2015-Aug-03 01:31N 42°25' E 018°42'0 0.0
2015-Aug-03 00:31N 42°25' E 018°42'0 0.0
2015-Aug-02 23:31N 42°25' E 018°42'0 0.0
2015-Aug-02 22:31N 42°25' E 018°42'0 0.0
2015-Aug-02 21:31N 42°25' E 018°42'0 0.0
2015-Aug-02 20:31N 42°25' E 018°42'0 0.0
2015-Aug-02 19:31N 42°25' E 018°42'0 0.0
2015-Aug-02 18:31N 42°25' E 018°42'0 0.0
2015-Aug-02 17:31N 42°25' E 018°42'0 0.0
2015-Aug-02 16:31N 42°25' E 018°42'0 0.0
2015-Aug-02 15:31N 42°25' E 018°42'0 0.0
2015-Aug-02 14:33N 42°25' E 018°42'0 0.0
2015-Aug-02 13:33N 42°25' E 018°42'0 0.0
2015-Aug-02 12:33N 42°25' E 018°42'0 0.0
2015-Aug-02 11:33N 42°25' E 018°42'0 0.0
2015-Aug-02 07:31N 42°25' E 018°42'0 0.0
2015-Aug-02 06:31N 42°25' E 018°42'0 0.0
2015-Aug-02 05:31N 42°25' E 018°42'0 0.0
2015-Aug-02 04:31N 42°25' E 018°42'0 0.0
2015-Aug-02 03:31N 42°25' E 018°42'0 0.0
2015-Aug-02 02:31N 42°25' E 018°42'0 0.0
2015-Aug-02 01:31N 42°25' E 018°42'0 0.0
2015-Aug-02 00:31N 42°25' E 018°42'0 0.0
2015-Aug-01 23:31N 42°25' E 018°42'0 0.0
2015-Aug-01 22:31N 42°25' E 018°42'0 0.0
2015-Aug-01 21:31N 42°25' E 018°42'0 0.0
2015-Aug-01 20:31N 42°25' E 018°42'0 0.0
2015-Aug-01 19:31N 42°25' E 018°42'1 0.6
2015-Aug-01 18:33N 42°26' E 018°41'4 3.6
2015-Aug-01 17:31N 42°29' E 018°39'0 0.0
2015-Aug-01 16:22N 42°29' E 018°39'0 0.0
2015-Aug-01 15:28N 42°29' E 018°39'0 0.0
2015-Aug-01 14:22N 42°29' E 018°39'0 0.0
2015-Aug-01 13:25N 42°29' E 018°39'0 0.0
2015-Aug-01 12:25N 42°29' E 018°39'0 0.0
2015-Aug-01 11:31N 42°29' E 018°39'2 2.0
2015-Aug-01 10:33N 42°28' E 018°41'2 2.3
2015-Aug-01 09:33N 42°26' E 018°42'0 0.0
2015-Aug-01 08:33N 42°26' E 018°42'0 0.0
2015-Aug-01 07:33N 42°26' E 018°42'0 0.0
2015-Aug-01 06:33N 42°26' E 018°42'0 0.0
2015-Aug-01 05:33N 42°26' E 018°42'0 0.0
2015-Aug-01 04:33N 42°26' E 018°42'0 0.0
2015-Aug-01 03:33N 42°26' E 018°42'0 0.0
2015-Aug-01 02:33N 42°26' E 018°42'0 0.0
2015-Aug-01 01:33N 42°26' E 018°42'0 0.0
2015-Aug-01 00:33N 42°26' E 018°42'0 0.0
2015-Jul-31 23:33N 42°26' E 018°42'0 0.0
2015-Jul-31 22:33N 42°26' E 018°42'0 0.0
2015-Jul-31 21:33N 42°26' E 018°42'0 0.0
2015-Jul-31 20:33N 42°26' E 018°42'0 0.0
2015-Jul-31 19:33N 42°26' E 018°42'0 0.0
2015-Jul-31 18:33N 42°26' E 018°42'0 0.0
2015-Jul-31 17:34N 42°26' E 018°42'0 0.0
2015-Jul-31 16:34N 42°26' E 018°42'1 0.5
2015-Jul-31 15:34N 42°26' E 018°41'6 5.7
2015-Jul-31 14:33N 42°23' E 018°34'9 8.9
2015-Jul-31 13:33N 42°17' E 018°43'6 0.3
2015-Jul-30 13:11N 42°16' E 018°52'0 0.0
2015-Jul-30 09:09N 42°16' E 018°52'0 0.1
2015-Jul-30 07:12N 42°17' E 018°51'0 0.0
2015-Jul-30 06:11N 42°17' E 018°51'0 0.0
2015-Jul-30 05:26N 42°17' E 018°51'0 0.0
2015-Jul-30 04:33N 42°17' E 018°51'0 0.0
2015-Jul-30 03:28N 42°17' E 018°51'0 0.0
2015-Jul-30 02:31N 42°17' E 018°51'0 0.0
2015-Jul-30 00:30N 42°17' E 018°51'0 0.0
2015-Jul-29 23:25N 42°17' E 018°51'0 0.0
2015-Jul-29 22:20N 42°17' E 018°51'0 0.0
2015-Jul-29 21:33N 42°17' E 018°51'0 0.0
2015-Jul-29 18:17N 42°17' E 018°51'0 0.0
2015-Jul-29 17:32N 42°17' E 018°51'0 0.0
2015-Jul-29 16:07N 42°17' E 018°51'0 0.0
2015-Jul-29 15:27N 42°17' E 018°51'0 0.0
2015-Jul-29 14:33N 42°17' E 018°51'0 0.0
2015-Jul-29 13:27N 42°17' E 018°51'6 6.9
2015-Jul-29 12:33N 42°18' E 018°43'1110.5
2015-Jul-29 11:31N 42°26' E 018°33'7 1.7
2015-Jul-29 07:15N 42°24' E 018°42'0 0.0
2015-Jul-29 06:33N 42°24' E 018°42'0 0.0
2015-Jul-29 05:33N 42°24' E 018°42'0 0.0
2015-Jul-29 04:33N 42°24' E 018°42'0 0.0
2015-Jul-29 03:33N 42°24' E 018°42'0 0.0
2015-Jul-29 02:33N 42°24' E 018°42'0 0.0
2015-Jul-29 01:33N 42°24' E 018°42'0 0.0
2015-Jul-29 00:33N 42°24' E 018°42'0 0.0
2015-Jul-28 23:24N 42°24' E 018°42'0 0.0
2015-Jul-28 22:33N 42°24' E 018°42'0 0.0
2015-Jul-28 21:33N 42°24' E 018°42'0 0.0
2015-Jul-28 20:24N 42°24' E 018°42'0 0.0
2015-Jul-28 19:33N 42°24' E 018°42'0 0.0
2015-Jul-28 18:33N 42°24' E 018°42'0 0.0
2015-Jul-28 17:33N 42°24' E 018°42'0 0.0
2015-Jul-28 16:33N 42°24' E 018°42'2 2.0
2015-Jul-28 15:33N 42°26' E 018°41'4 4.4
2015-Jul-28 14:33N 42°30' E 018°41'0 0.0
2015-Jul-28 13:33N 42°30' E 018°41'2 1.9
2015-Jul-28 12:33N 42°29' E 018°43'3 3.0
2015-Jul-28 11:33N 42°26' E 018°41'0 0.0
2015-Jul-28 10:22N 42°26' E 018°41'0 0.0
2015-Jul-28 09:22N 42°26' E 018°41'0 0.0
2015-Jul-28 08:31N 42°26' E 018°41'0 0.0
2015-Jul-28 07:31N 42°26' E 018°41'0 0.0
2015-Jul-28 06:31N 42°26' E 018°41'0 0.0
2015-Jul-28 05:31N 42°26' E 018°41'0 0.0
2015-Jul-28 04:31N 42°26' E 018°41'0 0.0
2015-Jul-28 03:31N 42°26' E 018°41'0 0.0
2015-Jul-28 02:31N 42°26' E 018°41'0 0.0
2015-Jul-28 01:31N 42°26' E 018°41'0 0.0
2015-Jul-28 00:31N 42°26' E 018°41'0 0.0
2015-Jul-27 23:31N 42°26' E 018°41'0 0.0
2015-Jul-27 22:31N 42°26' E 018°41'0 0.0
2015-Jul-27 21:31N 42°26' E 018°41'0 0.0
2015-Jul-27 20:31N 42°26' E 018°41'0 0.0
2015-Jul-27 19:31N 42°26' E 018°41'0 0.0
2015-Jul-27 18:31N 42°26' E 018°41'0 0.0
2015-Jul-27 17:31N 42°26' E 018°41'0 0.0
2015-Jul-27 16:31N 42°26' E 018°41'0 0.0
2015-Jul-27 15:31N 42°26' E 018°41'0 0.0
2015-Jul-27 14:31N 42°26' E 018°41'0 0.0
2015-Jul-27 13:31N 42°26' E 018°41'0 0.0
2015-Jul-27 12:31N 42°26' E 018°41'0 0.0
2015-Jul-27 11:31N 42°26' E 018°41'0 0.0
2015-Jul-27 10:31N 42°26' E 018°41'0 0.0
2015-Jul-27 09:31N 42°26' E 018°41'0 0.0
2015-Jul-27 08:31N 42°26' E 018°41'0 0.0
2015-Jul-27 07:31N 42°26' E 018°41'0 0.0
2015-Jul-27 06:31N 42°26' E 018°41'0 0.0
2015-Jul-27 05:31N 42°26' E 018°41'0 0.0
2015-Jul-27 04:31N 42°26' E 018°41'0 0.0
2015-Jul-27 03:31N 42°26' E 018°41'0 0.0
2015-Jul-27 02:31N 42°26' E 018°41'0 0.0
2015-Jul-27 01:31N 42°26' E 018°41'0 0.0
2015-Jul-27 00:31N 42°26' E 018°41'0 0.0
2015-Jul-26 23:31N 42°26' E 018°41'0 0.0
2015-Jul-26 22:31N 42°26' E 018°41'0 0.0
2015-Jul-26 21:22N 42°26' E 018°41'0 0.0
2015-Jul-26 20:31N 42°26' E 018°41'0 0.0
2015-Jul-26 19:31N 42°26' E 018°41'0 0.0
2015-Jul-26 18:31N 42°26' E 018°41'0 0.0
2015-Jul-26 17:31N 42°26' E 018°41'0 0.0
2015-Jul-26 16:31N 42°26' E 018°41'0 0.0
2015-Jul-26 15:31N 42°26' E 018°41'0 0.0
2015-Jul-26 14:31N 42°26' E 018°41'0 0.0
2015-Jul-26 13:31N 42°26' E 018°41'0 0.0
2015-Jul-26 12:31N 42°26' E 018°41'0 0.0
2015-Jul-26 11:31N 42°26' E 018°41'0 0.0
2015-Jul-26 10:32N 42°26' E 018°41'0 0.0
2015-Jul-26 09:32N 42°26' E 018°41'0 0.0
2015-Jul-26 08:32N 42°26' E 018°41'0 0.0
2015-Jul-26 07:33N 42°26' E 018°41'0 0.0
2015-Jul-26 06:33N 42°26' E 018°41'0 0.0
2015-Jul-26 05:33N 42°26' E 018°41'0 0.0
2015-Jul-26 04:33N 42°26' E 018°41'0 0.0
2015-Jul-26 03:33N 42°26' E 018°41'0 0.0
2015-Jul-26 02:33N 42°26' E 018°41'0 0.0
2015-Jul-26 01:33N 42°26' E 018°41'0 0.0
2015-Jul-26 00:33N 42°26' E 018°41'0 0.0
2015-Jul-25 23:33N 42°26' E 018°41'0 0.0
2015-Jul-25 22:33N 42°26' E 018°41'0 0.0
2015-Jul-25 21:33N 42°26' E 018°41'0 0.0
2015-Jul-25 20:33N 42°26' E 018°41'0 0.0
2015-Jul-25 19:33N 42°26' E 018°41'0 0.0
2015-Jul-25 18:33N 42°26' E 018°41'0 0.0
2015-Jul-25 17:33N 42°26' E 018°41'0 0.0
2015-Jul-25 16:33N 42°26' E 018°41'0 0.0
2015-Jul-25 15:33N 42°26' E 018°41'0 0.0
2015-Jul-25 14:33N 42°26' E 018°41'0 0.0
2015-Jul-25 13:33N 42°26' E 018°41'0 0.0
2015-Jul-25 12:33N 42°26' E 018°41'  

Dump ship's entire track history